Year,Month,Day,Hour,Minute,Value (Times are PST for windspeed in km/hr)
2019,04,28,00,00,6.80
2019,04,28,00,01,5.80
2019,04,28,00,02,13.20
2019,04,28,00,03,10.50
2019,04,28,00,04,8.80
2019,04,28,00,05,5.30
2019,04,28,00,06,6.50
2019,04,28,00,07,8.40
2019,04,28,00,08,9.10
2019,04,28,00,09,4.30
2019,04,28,00,10,4.90
2019,04,28,00,11,9.70
2019,04,28,00,12,10.80
2019,04,28,00,13,7.30
2019,04,28,00,14,6.80
2019,04,28,00,15,5.00
2019,04,28,00,16,7.40
2019,04,28,00,17,8.20
2019,04,28,00,18,11.70
2019,04,28,00,19,8.30
2019,04,28,00,20,13.70
2019,04,28,00,21,13.00
2019,04,28,00,22,11.90
2019,04,28,00,23,14.90
2019,04,28,00,24,11.10
2019,04,28,00,25,11.30
2019,04,28,00,26,10.80
2019,04,28,00,27,8.80
2019,04,28,00,28,6.20
2019,04,28,00,29,8.20
2019,04,28,00,30,7.00
2019,04,28,00,31,7.50
2019,04,28,00,32,6.90
2019,04,28,00,33,9.90
2019,04,28,00,34,7.20
2019,04,28,00,35,8.60
2019,04,28,00,36,10.30
2019,04,28,00,37,11.20
2019,04,28,00,38,4.70
2019,04,28,00,39,13.50
2019,04,28,00,40,9.10
2019,04,28,00,41,9.90
2019,04,28,00,42,8.70
2019,04,28,00,43,11.30
2019,04,28,00,44,12.00
2019,04,28,00,45,7.40
2019,04,28,00,46,8.00
2019,04,28,00,47,6.40
2019,04,28,00,48,11.00
2019,04,28,00,49,12.30
2019,04,28,00,50,7.60
2019,04,28,00,51,11.00
2019,04,28,00,52,7.40
2019,04,28,00,53,4.40
2019,04,28,00,54,5.20
2019,04,28,00,55,13.60
2019,04,28,00,56,10.40
2019,04,28,00,57,9.70
2019,04,28,00,58,8.30
2019,04,28,00,59,5.10
2019,04,28,01,00,5.20
2019,04,28,01,01,10.50
2019,04,28,01,02,5.70
2019,04,28,01,03,8.90
2019,04,28,01,04,6.00
2019,04,28,01,05,6.30
2019,04,28,01,06,11.80
2019,04,28,01,07,10.10
2019,04,28,01,08,5.40
2019,04,28,01,09,6.60
2019,04,28,01,10,10.10
2019,04,28,01,11,13.60
2019,04,28,01,12,6.30
2019,04,28,01,13,7.50
2019,04,28,01,14,6.60
2019,04,28,01,15,6.70
2019,04,28,01,16,8.90
2019,04,28,01,17,3.20
2019,04,28,01,18,9.50
2019,04,28,01,19,6.40
2019,04,28,01,20,6.10
2019,04,28,01,21,8.40
2019,04,28,01,22,14.70
2019,04,28,01,23,6.20
2019,04,28,01,24,6.20
2019,04,28,01,25,6.50
2019,04,28,01,26,7.40
2019,04,28,01,27,9.30
2019,04,28,01,28,11.60
2019,04,28,01,29,14.50
2019,04,28,01,30,4.30
2019,04,28,01,31,6.80
2019,04,28,01,32,10.60
2019,04,28,01,33,10.70
2019,04,28,01,34,5.70
2019,04,28,01,35,7.60
2019,04,28,01,36,5.70
2019,04,28,01,37,10.10
2019,04,28,01,38,9.40
2019,04,28,01,39,5.20
2019,04,28,01,40,5.70
2019,04,28,01,41,6.60
2019,04,28,01,42,9.60
2019,04,28,01,43,6.40
2019,04,28,01,44,5.80
2019,04,28,01,45,8.60
2019,04,28,01,46,6.70
2019,04,28,01,47,7.90
2019,04,28,01,48,9.70
2019,04,28,01,49,10.00
2019,04,28,01,50,6.00
2019,04,28,01,51,6.60
2019,04,28,01,52,5.20
2019,04,28,01,53,4.50
2019,04,28,01,54,5.30
2019,04,28,01,55,5.20
2019,04,28,01,56,3.90
2019,04,28,01,57,4.20
2019,04,28,01,58,7.50
2019,04,28,01,59,5.70
2019,04,28,02,00,3.00
2019,04,28,02,01,4.30
2019,04,28,02,02,5.40
2019,04,28,02,03,3.20
2019,04,28,02,04,5.00
2019,04,28,02,05,7.10
2019,04,28,02,06,6.40
2019,04,28,02,07,3.70
2019,04,28,02,08,6.00
2019,04,28,02,09,12.90
2019,04,28,02,10,7.60
2019,04,28,02,11,5.80
2019,04,28,02,12,4.00
2019,04,28,02,13,3.50
2019,04,28,02,14,3.70
2019,04,28,02,15,3.90
2019,04,28,02,16,3.40
2019,04,28,02,17,9.10
2019,04,28,02,18,11.00
2019,04,28,02,19,4.50
2019,04,28,02,20,7.00
2019,04,28,02,21,1.20
2019,04,28,02,22,4.60
2019,04,28,02,23,5.00
2019,04,28,02,24,4.60
2019,04,28,02,25,3.60
2019,04,28,02,26,3.90
2019,04,28,02,27,5.30
2019,04,28,02,28,5.10
2019,04,28,02,29,3.80
2019,04,28,02,30,4.90
2019,04,28,02,31,5.20
2019,04,28,02,32,2.90
2019,04,28,02,33,4.10
2019,04,28,02,34,4.70
2019,04,28,02,35,4.60
2019,04,28,02,36,5.80
2019,04,28,02,37,5.00
2019,04,28,02,38,5.70
2019,04,28,02,39,3.90
2019,04,28,02,40,3.10
2019,04,28,02,41,2.70
2019,04,28,02,42,3.00
2019,04,28,02,43,3.60
2019,04,28,02,44,4.70
2019,04,28,02,45,1.90
2019,04,28,02,46,0.80
2019,04,28,02,47,1.60
2019,04,28,02,48,3.30
2019,04,28,02,49,4.70
2019,04,28,02,50,3.60
2019,04,28,02,51,4.00
2019,04,28,02,52,3.70
2019,04,28,02,53,1.10
2019,04,28,02,54,2.40
2019,04,28,02,55,2.00
2019,04,28,02,56,2.10
2019,04,28,02,57,3.00
2019,04,28,02,58,1.80
2019,04,28,02,59,1.40
2019,04,28,03,00,2.70
2019,04,28,03,01,3.30
2019,04,28,03,02,5.10
2019,04,28,03,03,3.80
2019,04,28,03,04,2.40
2019,04,28,03,05,1.40
2019,04,28,03,06,1.40
2019,04,28,03,07,1.50
2019,04,28,03,08,2.90
2019,04,28,03,09,4.00
2019,04,28,03,10,5.10
2019,04,28,03,11,3.60
2019,04,28,03,12,1.60
2019,04,28,03,13,4.50
2019,04,28,03,14,3.00
2019,04,28,03,15,3.20
2019,04,28,03,16,4.50
2019,04,28,03,17,6.50
2019,04,28,03,18,3.70
2019,04,28,03,19,2.10
2019,04,28,03,20,3.40
2019,04,28,03,21,1.60
2019,04,28,03,22,4.80
2019,04,28,03,23,3.40
2019,04,28,03,24,4.30
2019,04,28,03,25,5.50
2019,04,28,03,26,4.10
2019,04,28,03,27,5.40
2019,04,28,03,28,8.10
2019,04,28,03,29,8.10
2019,04,28,03,30,3.40
2019,04,28,03,31,2.30
2019,04,28,03,32,2.40
2019,04,28,03,33,2.30
2019,04,28,03,34,2.40
2019,04,28,03,35,4.80
2019,04,28,03,36,0.60
2019,04,28,03,37,4.70
2019,04,28,03,38,3.00
2019,04,28,03,39,2.40
2019,04,28,03,40,2.60
2019,04,28,03,41,3.50
2019,04,28,03,42,2.60
2019,04,28,03,43,4.70
2019,04,28,03,44,5.70
2019,04,28,03,45,4.30
2019,04,28,03,46,3.20
2019,04,28,03,47,2.00
2019,04,28,03,48,1.90
2019,04,28,03,49,1.20
2019,04,28,03,50,5.10
2019,04,28,03,51,2.50
2019,04,28,03,52,2.70
2019,04,28,03,53,3.60
2019,04,28,03,54,3.80
2019,04,28,03,55,1.40
2019,04,28,03,56,2.10
2019,04,28,03,57,3.60
2019,04,28,03,58,3.70
2019,04,28,03,59,2.70
2019,04,28,04,00,4.90
2019,04,28,04,01,3.60
2019,04,28,04,02,4.00
2019,04,28,04,03,4.70
2019,04,28,04,04,2.30
2019,04,28,04,05,1.70
2019,04,28,04,06,0.90
2019,04,28,04,07,0.60
2019,04,28,04,08,1.30
2019,04,28,04,09,1.90
2019,04,28,04,10,2.90
2019,04,28,04,11,1.60
2019,04,28,04,12,1.00
2019,04,28,04,13,2.80
2019,04,28,04,14,2.80
2019,04,28,04,15,2.90
2019,04,28,04,16,2.00
2019,04,28,04,17,1.30
2019,04,28,04,18,0.90
2019,04,28,04,19,1.80
2019,04,28,04,20,1.50
2019,04,28,04,21,0.90
2019,04,28,04,22,1.30
2019,04,28,04,23,2.40
2019,04,28,04,24,2.20
2019,04,28,04,25,0.50
2019,04,28,04,26,0.30
2019,04,28,04,27,1.50
2019,04,28,04,28,1.80
2019,04,28,04,29,2.90
2019,04,28,04,30,1.40
2019,04,28,04,31,1.30
2019,04,28,04,32,1.00
2019,04,28,04,33,1.20
2019,04,28,04,34,0.80
2019,04,28,04,35,0.50
2019,04,28,04,36,1.20
2019,04,28,04,37,0.30
2019,04,28,04,38,0.00
2019,04,28,04,39,0.40
2019,04,28,04,40,1.10
2019,04,28,04,41,0.10
2019,04,28,04,42,0.00
2019,04,28,04,43,1.70
2019,04,28,04,44,2.10
2019,04,28,04,45,1.30
2019,04,28,04,46,1.60
2019,04,28,04,47,4.50
2019,04,28,04,48,5.00
2019,04,28,04,49,2.20
2019,04,28,04,50,2.30
2019,04,28,04,51,2.20
2019,04,28,04,52,1.30
2019,04,28,04,53,1.70
2019,04,28,04,54,3.30
2019,04,28,04,55,3.90
2019,04,28,04,56,1.60
2019,04,28,04,57,1.10
2019,04,28,04,58,0.70
2019,04,28,04,59,0.90
2019,04,28,05,00,1.20
2019,04,28,05,01,1.10
2019,04,28,05,02,0.80
2019,04,28,05,03,1.10
2019,04,28,05,04,2.30
2019,04,28,05,05,1.60
2019,04,28,05,06,1.30
2019,04,28,05,07,1.30
2019,04,28,05,08,0.10
2019,04,28,05,09,1.00
2019,04,28,05,10,2.20
2019,04,28,05,11,1.90
2019,04,28,05,12,1.00
2019,04,28,05,13,1.00
2019,04,28,05,14,3.30
2019,04,28,05,15,2.00
2019,04,28,05,16,2.40
2019,04,28,05,17,1.70
2019,04,28,05,18,1.00
2019,04,28,05,19,0.50
2019,04,28,05,20,2.30
2019,04,28,05,21,3.20
2019,04,28,05,22,2.80
2019,04,28,05,23,2.70
2019,04,28,05,24,2.00
2019,04,28,05,25,2.00
2019,04,28,05,26,3.30
2019,04,28,05,27,3.40
2019,04,28,05,28,3.20
2019,04,28,05,29,4.00
2019,04,28,05,30,3.30
2019,04,28,05,31,3.80
2019,04,28,05,32,2.40
2019,04,28,05,33,5.80
2019,04,28,05,34,3.20
2019,04,28,05,35,2.90
2019,04,28,05,36,3.90
2019,04,28,05,37,4.10
2019,04,28,05,38,1.40
2019,04,28,05,39,3.80
2019,04,28,05,40,2.80
2019,04,28,05,41,3.50
2019,04,28,05,42,3.60
2019,04,28,05,43,1.60
2019,04,28,05,44,2.60
2019,04,28,05,45,3.00
2019,04,28,05,46,2.20
2019,04,28,05,47,1.00
2019,04,28,05,48,1.60
2019,04,28,05,49,3.60
2019,04,28,05,50,3.00
2019,04,28,05,51,3.00
2019,04,28,05,52,5.00
2019,04,28,05,53,4.00
2019,04,28,05,54,3.00
2019,04,28,05,55,3.20
2019,04,28,05,56,4.40
2019,04,28,05,57,3.50
2019,04,28,05,58,3.50
2019,04,28,05,59,3.10
2019,04,28,06,00,6.40
2019,04,28,06,01,3.40
2019,04,28,06,02,2.60
2019,04,28,06,03,6.00
2019,04,28,06,04,5.00
2019,04,28,06,05,6.10
2019,04,28,06,06,4.80
2019,04,28,06,07,4.50
2019,04,28,06,08,3.00
2019,04,28,06,09,2.80
2019,04,28,06,10,3.00
2019,04,28,06,11,4.90
2019,04,28,06,12,2.40
2019,04,28,06,13,2.90
2019,04,28,06,14,4.40
2019,04,28,06,15,6.30
2019,04,28,06,16,3.40
2019,04,28,06,17,4.10
2019,04,28,06,18,5.50
2019,04,28,06,19,3.40
2019,04,28,06,20,3.00
2019,04,28,06,21,3.30
2019,04,28,06,22,3.30
2019,04,28,06,23,3.00
2019,04,28,06,24,3.70
2019,04,28,06,25,4.40
2019,04,28,06,26,3.30
2019,04,28,06,27,3.10
2019,04,28,06,28,2.90
2019,04,28,06,29,2.50
2019,04,28,06,30,4.60
2019,04,28,06,31,4.00
2019,04,28,06,32,2.70
2019,04,28,06,33,4.50
2019,04,28,06,34,4.10
2019,04,28,06,35,2.60
2019,04,28,06,36,3.40
2019,04,28,06,37,2.30
2019,04,28,06,38,4.40
2019,04,28,06,39,3.90
2019,04,28,06,40,3.30
2019,04,28,06,41,4.20
2019,04,28,06,42,3.60
2019,04,28,06,43,3.70
2019,04,28,06,44,4.90
2019,04,28,06,45,3.40
2019,04,28,06,46,2.00
2019,04,28,06,47,1.60
2019,04,28,06,48,1.60
2019,04,28,06,49,1.60
2019,04,28,06,50,1.60
2019,04,28,06,51,4.00
2019,04,28,06,52,3.30
2019,04,28,06,53,4.00
2019,04,28,06,54,1.80
2019,04,28,06,55,3.30
2019,04,28,06,56,2.90
2019,04,28,06,57,1.40
2019,04,28,06,58,2.60
2019,04,28,06,59,2.60
2019,04,28,07,00,3.10
2019,04,28,07,01,1.90
2019,04,28,07,02,3.30
2019,04,28,07,03,0.90
2019,04,28,07,04,4.20
2019,04,28,07,05,3.40
2019,04,28,07,06,3.60
2019,04,28,07,07,3.00
2019,04,28,07,08,2.30
2019,04,28,07,09,2.60
2019,04,28,07,10,2.10
2019,04,28,07,11,3.00
2019,04,28,07,12,4.30
2019,04,28,07,13,3.60
2019,04,28,07,14,4.90
2019,04,28,07,15,4.30
2019,04,28,07,16,2.80
2019,04,28,07,17,3.70
2019,04,28,07,18,4.10
2019,04,28,07,19,3.40
2019,04,28,07,20,4.90
2019,04,28,07,21,4.70
2019,04,28,07,22,3.60
2019,04,28,07,23,5.80
2019,04,28,07,24,3.30
2019,04,28,07,25,7.80
2019,04,28,07,26,3.80
2019,04,28,07,27,4.70
2019,04,28,07,28,3.40
2019,04,28,07,29,2.90
2019,04,28,07,30,6.10
2019,04,28,07,31,4.00
2019,04,28,07,32,2.80
2019,04,28,07,33,3.50
2019,04,28,07,34,3.40
2019,04,28,07,35,3.40
2019,04,28,07,36,3.50
2019,04,28,07,37,4.10
2019,04,28,07,38,3.60
2019,04,28,07,39,4.10
2019,04,28,07,40,3.60
2019,04,28,07,41,2.80
2019,04,28,07,42,3.30
2019,04,28,07,43,7.30
2019,04,28,07,44,4.30
2019,04,28,07,45,4.80
2019,04,28,07,46,2.10
2019,04,28,07,47,5.10
2019,04,28,07,48,6.00
2019,04,28,07,49,3.60
2019,04,28,07,50,5.40
2019,04,28,07,51,6.30
2019,04,28,07,52,10.20
2019,04,28,07,53,4.20
2019,04,28,07,54,4.40
2019,04,28,07,55,4.20
2019,04,28,07,56,9.30
2019,04,28,07,57,5.70
2019,04,28,07,58,7.80
2019,04,28,07,59,7.20
2019,04,28,08,00,3.00
2019,04,28,08,01,5.10
2019,04,28,08,02,5.60
2019,04,28,08,03,6.60
2019,04,28,08,04,3.60
2019,04,28,08,05,4.00
2019,04,28,08,06,4.90
2019,04,28,08,07,5.40
2019,04,28,08,08,5.50
2019,04,28,08,09,7.50
2019,04,28,08,10,6.60
2019,04,28,08,11,8.40
2019,04,28,08,12,6.90
2019,04,28,08,13,5.70
2019,04,28,08,14,5.90
2019,04,28,08,15,6.70
2019,04,28,08,16,10.10
2019,04,28,08,17,11.60
2019,04,28,08,18,7.00
2019,04,28,08,19,5.60
2019,04,28,08,20,7.40
2019,04,28,08,21,5.30
2019,04,28,08,22,7.10
2019,04,28,08,23,4.20
2019,04,28,08,24,2.70
2019,04,28,08,25,5.90
2019,04,28,08,26,9.40
2019,04,28,08,27,4.00
2019,04,28,08,28,4.00
2019,04,28,08,29,9.20
2019,04,28,08,30,7.10
2019,04,28,08,31,5.00
2019,04,28,08,32,10.90
2019,04,28,08,33,5.20
2019,04,28,08,34,5.10
2019,04,28,08,35,5.80
2019,04,28,08,36,4.50
2019,04,28,08,37,8.40
2019,04,28,08,38,10.70
2019,04,28,08,39,6.50
2019,04,28,08,40,10.90
2019,04,28,08,41,5.10
2019,04,28,08,42,4.70
2019,04,28,08,43,5.20
2019,04,28,08,44,6.20
2019,04,28,08,45,4.60
2019,04,28,08,46,4.50
2019,04,28,08,47,4.30
2019,04,28,08,48,6.70
2019,04,28,08,49,3.30
2019,04,28,08,50,5.80
2019,04,28,08,51,4.00
2019,04,28,08,52,4.20
2019,04,28,08,53,4.00
2019,04,28,08,54,7.80
2019,04,28,08,55,5.60
2019,04,28,08,56,5.00
2019,04,28,08,57,6.60
2019,04,28,08,58,10.00
2019,04,28,08,59,7.70
2019,04,28,09,00,4.70
2019,04,28,09,01,6.70
2019,04,28,09,02,8.60
2019,04,28,09,03,5.40
2019,04,28,09,04,7.90
2019,04,28,09,05,10.70
2019,04,28,09,06,6.10
2019,04,28,09,07,7.00
2019,04,28,09,08,5.10
2019,04,28,09,09,9.70
2019,04,28,09,10,2.70
2019,04,28,09,11,3.00
2019,04,28,09,12,3.60
2019,04,28,09,13,4.20
2019,04,28,09,14,5.60
2019,04,28,09,15,6.40
2019,04,28,09,16,3.60
2019,04,28,09,17,4.80
2019,04,28,09,18,5.00
2019,04,28,09,19,12.00
2019,04,28,09,20,7.50
2019,04,28,09,21,9.80
2019,04,28,09,22,11.30
2019,04,28,09,23,7.20
2019,04,28,09,24,8.50
2019,04,28,09,25,7.70
2019,04,28,09,26,9.00
2019,04,28,09,27,8.60
2019,04,28,09,28,8.30
2019,04,28,09,29,7.50
2019,04,28,09,30,7.70
2019,04,28,09,31,8.00
2019,04,28,09,32,8.20
2019,04,28,09,33,9.00
2019,04,28,09,34,7.90
2019,04,28,09,35,8.00
2019,04,28,09,36,7.20
2019,04,28,09,37,6.00
2019,04,28,09,38,6.40
2019,04,28,09,39,4.40
2019,04,28,09,40,3.00
2019,04,28,09,41,4.50
2019,04,28,09,42,10.80
2019,04,28,09,43,9.20
2019,04,28,09,44,7.10
2019,04,28,09,45,13.00
2019,04,28,09,46,6.20
2019,04,28,09,47,10.80
2019,04,28,09,48,12.20
2019,04,28,09,49,13.50
2019,04,28,09,50,6.70
2019,04,28,09,51,13.10
2019,04,28,09,52,11.10
2019,04,28,09,53,6.30
2019,04,28,09,54,9.40
2019,04,28,09,55,7.20
2019,04,28,09,56,6.50
2019,04,28,09,57,6.00
2019,04,28,09,58,4.90
2019,04,28,09,59,7.40
2019,04,28,10,00,7.60
2019,04,28,10,01,7.80
2019,04,28,10,02,3.80
2019,04,28,10,03,8.40
2019,04,28,10,04,10.90
2019,04,28,10,05,7.20
2019,04,28,10,06,11.80
2019,04,28,10,07,14.60
2019,04,28,10,08,9.80
2019,04,28,10,09,8.20
2019,04,28,10,10,8.80
2019,04,28,10,11,9.00
2019,04,28,10,12,6.50
2019,04,28,10,13,10.40
2019,04,28,10,14,14.50
2019,04,28,10,15,12.60
2019,04,28,10,16,12.90
2019,04,28,10,17,5.80
2019,04,28,10,18,11.40
2019,04,28,10,19,4.80
2019,04,28,10,20,3.90
2019,04,28,10,21,11.60
2019,04,28,10,22,7.80
2019,04,28,10,23,3.80
2019,04,28,10,24,6.40
2019,04,28,10,25,5.50
2019,04,28,10,26,10.70
2019,04,28,10,27,7.20
2019,04,28,10,28,6.70
2019,04,28,10,29,14.50
2019,04,28,10,30,5.90
2019,04,28,10,31,6.00
2019,04,28,10,32,9.40
2019,04,28,10,33,6.60
2019,04,28,10,34,7.50
2019,04,28,10,35,5.80
2019,04,28,10,36,7.60
2019,04,28,10,37,6.80
2019,04,28,10,38,7.00
2019,04,28,10,39,13.00
2019,04,28,10,40,9.30
2019,04,28,10,41,8.80
2019,04,28,10,42,5.50
2019,04,28,10,43,8.10
2019,04,28,10,44,8.50
2019,04,28,10,45,10.90
2019,04,28,10,46,11.30
2019,04,28,10,47,10.70
2019,04,28,10,48,13.00
2019,04,28,10,49,8.90
2019,04,28,10,50,10.60
2019,04,28,10,51,6.10
2019,04,28,10,52,7.50
2019,04,28,10,53,4.80
2019,04,28,10,54,4.10
2019,04,28,10,55,4.60
2019,04,28,10,56,4.50
2019,04,28,10,57,11.30
2019,04,28,10,58,6.80
2019,04,28,10,59,9.00
2019,04,28,11,00,8.60
2019,04,28,11,01,8.70
2019,04,28,11,02,8.90
2019,04,28,11,03,8.10
2019,04,28,11,04,7.70
2019,04,28,11,05,4.20
2019,04,28,11,06,7.20
2019,04,28,11,07,9.00
2019,04,28,11,08,8.80
2019,04,28,11,09,11.00
2019,04,28,11,10,10.10
2019,04,28,11,11,6.40
2019,04,28,11,12,6.00
2019,04,28,11,13,5.70
2019,04,28,11,14,9.10
2019,04,28,11,15,7.30
2019,04,28,11,16,4.10
2019,04,28,11,17,4.30
2019,04,28,11,18,4.50
2019,04,28,11,19,10.60
2019,04,28,11,20,9.10
2019,04,28,11,21,9.70
2019,04,28,11,22,5.20
2019,04,28,11,23,5.50
2019,04,28,11,24,5.00
2019,04,28,11,25,5.00
2019,04,28,11,26,7.80
2019,04,28,11,27,2.40
2019,04,28,11,28,3.50
2019,04,28,11,29,9.30
2019,04,28,11,30,8.50
2019,04,28,11,31,6.80
2019,04,28,11,32,6.00
2019,04,28,11,33,3.70
2019,04,28,11,34,6.10
2019,04,28,11,35,4.10
2019,04,28,11,36,7.30
2019,04,28,11,37,7.40
2019,04,28,11,38,5.60
2019,04,28,11,39,4.20
2019,04,28,11,40,4.50
2019,04,28,11,41,5.60
2019,04,28,11,42,8.80
2019,04,28,11,43,5.20
2019,04,28,11,44,7.10
2019,04,28,11,45,6.00
2019,04,28,11,46,6.30
2019,04,28,11,47,5.60
2019,04,28,11,48,6.80
2019,04,28,11,49,4.50
2019,04,28,11,50,3.70
2019,04,28,11,51,8.20
2019,04,28,11,52,4.90
2019,04,28,11,53,5.70
2019,04,28,11,54,6.10
2019,04,28,11,55,7.30
2019,04,28,11,56,4.90
2019,04,28,11,57,6.80
2019,04,28,11,58,3.00
2019,04,28,11,59,4.50
2019,04,28,12,00,5.50
2019,04,28,12,01,9.60
2019,04,28,12,02,8.60
2019,04,28,12,03,8.70
2019,04,28,12,04,7.80
2019,04,28,12,05,5.70
2019,04,28,12,06,8.50
2019,04,28,12,07,8.70
2019,04,28,12,08,6.40
2019,04,28,12,09,6.30
2019,04,28,12,10,4.00
2019,04,28,12,11,7.80
2019,04,28,12,12,9.70
2019,04,28,12,13,7.20
2019,04,28,12,14,11.20
2019,04,28,12,15,9.30
2019,04,28,12,16,9.80
2019,04,28,12,17,8.60
2019,04,28,12,18,5.40
2019,04,28,12,19,4.30
2019,04,28,12,20,4.20
2019,04,28,12,21,7.60
2019,04,28,12,22,9.90
2019,04,28,12,23,6.70
2019,04,28,12,24,3.10
2019,04,28,12,25,0.60
2019,04,28,12,26,6.80
2019,04,28,12,27,4.90
2019,04,28,12,28,2.60
2019,04,28,12,29,7.30
2019,04,28,12,30,13.70
2019,04,28,12,31,3.90
2019,04,28,12,32,1.50
2019,04,28,12,33,5.70
2019,04,28,12,34,10.00
2019,04,28,12,35,12.70
2019,04,28,12,36,14.10
2019,04,28,12,37,6.60
2019,04,28,12,38,4.20
2019,04,28,12,39,2.70
2019,04,28,12,40,6.80
2019,04,28,12,41,4.40
2019,04,28,12,42,3.90
2019,04,28,12,43,5.50
2019,04,28,12,44,6.20
2019,04,28,12,45,4.40
2019,04,28,12,46,7.30
2019,04,28,12,47,8.70
2019,04,28,12,48,2.90
2019,04,28,12,49,4.70
2019,04,28,12,50,3.50
2019,04,28,12,51,7.90
2019,04,28,12,52,7.90
2019,04,28,12,53,8.50
2019,04,28,12,54,4.00
2019,04,28,12,55,7.40
2019,04,28,12,56,11.00
2019,04,28,12,57,8.80
2019,04,28,12,58,8.20
2019,04,28,12,59,6.80
2019,04,28,13,00,5.10
2019,04,28,13,01,7.70
2019,04,28,13,02,6.10
2019,04,28,13,03,4.80
2019,04,28,13,04,4.50
2019,04,28,13,05,4.30
2019,04,28,13,06,10.00
2019,04,28,13,07,8.70
2019,04,28,13,08,8.30
2019,04,28,13,09,7.80
2019,04,28,13,10,4.80
2019,04,28,13,11,5.90
2019,04,28,13,12,4.20
2019,04,28,13,13,5.10
2019,04,28,13,14,5.60
2019,04,28,13,15,4.20
2019,04,28,13,16,6.40
2019,04,28,13,17,5.80
2019,04,28,13,18,3.80
2019,04,28,13,19,4.00
2019,04,28,13,20,9.50
2019,04,28,13,21,7.50
2019,04,28,13,22,6.10
2019,04,28,13,23,4.80
2019,04,28,13,24,5.20
2019,04,28,13,25,3.80
2019,04,28,13,26,7.20
2019,04,28,13,27,7.20
2019,04,28,13,28,4.20
2019,04,28,13,29,6.60
2019,04,28,13,30,7.00
2019,04,28,13,31,5.60
2019,04,28,13,32,5.80
2019,04,28,13,33,6.30
2019,04,28,13,34,6.40
2019,04,28,13,35,6.30
2019,04,28,13,36,3.80
2019,04,28,13,37,2.40
2019,04,28,13,38,3.40
2019,04,28,13,39,5.10
2019,04,28,13,40,4.70
2019,04,28,13,41,4.90
2019,04,28,13,42,7.60
2019,04,28,13,43,6.10
2019,04,28,13,44,3.40
2019,04,28,13,45,7.30
2019,04,28,13,46,5.50
2019,04,28,13,47,8.90
2019,04,28,13,48,3.90
2019,04,28,13,49,2.50
2019,04,28,13,50,3.80
2019,04,28,13,51,8.70
2019,04,28,13,52,6.50
2019,04,28,13,53,7.00
2019,04,28,13,54,5.20
2019,04,28,13,55,5.30
2019,04,28,13,56,4.80
2019,04,28,13,57,4.60
2019,04,28,13,58,3.00
2019,04,28,13,59,4.10
2019,04,28,14,00,5.40
2019,04,28,14,01,3.00
2019,04,28,14,02,5.30
2019,04,28,14,03,7.80
2019,04,28,14,04,5.40
2019,04,28,14,05,4.50
2019,04,28,14,06,3.60
2019,04,28,14,07,7.30
2019,04,28,14,08,3.40
2019,04,28,14,09,5.70
2019,04,28,14,10,5.70
2019,04,28,14,11,4.50
2019,04,28,14,12,4.60
2019,04,28,14,13,3.30
2019,04,28,14,14,4.60
2019,04,28,14,15,4.20
2019,04,28,14,16,3.00
2019,04,28,14,17,3.10
2019,04,28,14,18,6.00
2019,04,28,14,19,4.50
2019,04,28,14,20,1.80
2019,04,28,14,21,2.80
2019,04,28,14,22,5.70
2019,04,28,14,23,5.40
2019,04,28,14,24,3.90
2019,04,28,14,25,3.60
2019,04,28,14,26,4.80
2019,04,28,14,27,3.60
2019,04,28,14,28,5.10
2019,04,28,14,29,4.50
2019,04,28,14,30,8.90
2019,04,28,14,31,9.20
2019,04,28,14,32,3.60
2019,04,28,14,33,6.80
2019,04,28,14,34,7.00
2019,04,28,14,35,7.90
2019,04,28,14,36,4.50
2019,04,28,14,37,4.00
2019,04,28,14,38,4.00
2019,04,28,14,39,4.30
2019,04,28,14,40,4.90
2019,04,28,14,41,4.70
2019,04,28,14,42,5.60
2019,04,28,14,43,5.00
2019,04,28,14,44,2.30
2019,04,28,14,45,5.70
2019,04,28,14,46,7.60
2019,04,28,14,47,4.80
2019,04,28,14,48,3.20
2019,04,28,14,49,4.30
2019,04,28,14,50,4.30
2019,04,28,14,51,6.30
2019,04,28,14,52,7.20
2019,04,28,14,53,8.30
2019,04,28,14,54,7.60
2019,04,28,14,55,5.80
2019,04,28,14,56,3.80
2019,04,28,14,57,9.30
2019,04,28,14,58,7.70
2019,04,28,14,59,9.40
2019,04,28,15,00,8.50
2019,04,28,15,01,6.60
2019,04,28,15,02,5.30
2019,04,28,15,03,4.00
2019,04,28,15,04,3.70
2019,04,28,15,05,4.00
2019,04,28,15,06,4.90
2019,04,28,15,07,6.70
2019,04,28,15,08,5.10
2019,04,28,15,09,3.90
2019,04,28,15,10,6.10
2019,04,28,15,11,3.60
2019,04,28,15,12,5.60
2019,04,28,15,13,5.40
2019,04,28,15,14,5.20
2019,04,28,15,15,7.60
2019,04,28,15,16,3.60
2019,04,28,15,17,6.80
2019,04,28,15,18,8.00
2019,04,28,15,19,9.10
2019,04,28,15,20,10.10
2019,04,28,15,21,9.50
2019,04,28,15,22,8.70
2019,04,28,15,23,5.80
2019,04,28,15,24,4.90
2019,04,28,15,25,10.30
2019,04,28,15,26,7.00
2019,04,28,15,27,7.50
2019,04,28,15,28,5.30
2019,04,28,15,29,9.00
2019,04,28,15,30,7.90
2019,04,28,15,31,9.20
2019,04,28,15,32,5.80
2019,04,28,15,33,8.60
2019,04,28,15,34,9.80
2019,04,28,15,35,7.40
2019,04,28,15,36,5.70
2019,04,28,15,37,6.10
2019,04,28,15,38,4.60
2019,04,28,15,39,5.80
2019,04,28,15,40,6.60
2019,04,28,15,41,7.10
2019,04,28,15,42,4.90
2019,04,28,15,43,8.00
2019,04,28,15,44,7.70
2019,04,28,15,45,4.10
2019,04,28,15,46,1.90
2019,04,28,15,47,3.50
2019,04,28,15,48,5.50
2019,04,28,15,49,4.10
2019,04,28,15,50,5.60
2019,04,28,15,51,4.30
2019,04,28,15,52,5.00
2019,04,28,15,53,3.70
2019,04,28,15,54,3.50
2019,04,28,15,55,3.10
2019,04,28,15,56,7.10
2019,04,28,15,57,4.60
2019,04,28,15,58,4.20
2019,04,28,15,59,4.90
2019,04,28,16,00,8.30
2019,04,28,16,01,5.40
2019,04,28,16,02,9.00
2019,04,28,16,03,3.50
2019,04,28,16,04,7.90
2019,04,28,16,05,5.90
2019,04,28,16,06,10.40
2019,04,28,16,07,7.10
2019,04,28,16,08,7.90
2019,04,28,16,09,3.80
2019,04,28,16,10,4.20
2019,04,28,16,11,7.40
2019,04,28,16,12,6.90
2019,04,28,16,13,3.60
2019,04,28,16,14,5.60
2019,04,28,16,15,4.70
2019,04,28,16,16,5.10
2019,04,28,16,17,3.20
2019,04,28,16,18,2.80
2019,04,28,16,19,2.90
2019,04,28,16,20,4.10
2019,04,28,16,21,5.10
2019,04,28,16,22,4.50
2019,04,28,16,23,4.00
2019,04,28,16,24,7.50
2019,04,28,16,25,4.60
2019,04,28,16,26,5.70
2019,04,28,16,27,6.80
2019,04,28,16,28,6.10
2019,04,28,16,29,7.30
2019,04,28,16,30,4.10
2019,04,28,16,31,4.90
2019,04,28,16,32,5.40
2019,04,28,16,33,3.60
2019,04,28,16,34,4.40
2019,04,28,16,35,4.80
2019,04,28,16,36,5.90
2019,04,28,16,37,3.90
2019,04,28,16,38,4.60
2019,04,28,16,39,5.30
2019,04,28,16,40,4.20
2019,04,28,16,41,3.90
2019,04,28,16,42,3.90
2019,04,28,16,43,5.70
2019,04,28,16,44,2.10
2019,04,28,16,45,4.60
2019,04,28,16,46,6.90
2019,04,28,16,47,3.80
2019,04,28,16,48,3.40
2019,04,28,16,49,5.10
2019,04,28,16,50,4.60
2019,04,28,16,51,3.40
2019,04,28,16,52,2.90
2019,04,28,16,53,6.30
2019,04,28,16,54,3.60
2019,04,28,16,55,5.50
2019,04,28,16,56,6.40
2019,04,28,16,57,3.70
2019,04,28,16,58,3.50
2019,04,28,16,59,3.70
2019,04,28,17,00,3.90
2019,04,28,17,01,3.20
2019,04,28,17,02,5.20
2019,04,28,17,03,7.20
2019,04,28,17,04,5.00
2019,04,28,17,05,5.50
2019,04,28,17,06,2.60
2019,04,28,17,07,4.80
2019,04,28,17,08,5.40
2019,04,28,17,09,8.50
2019,04,28,17,10,5.60
2019,04,28,17,11,3.50
2019,04,28,17,12,4.20
2019,04,28,17,13,5.40
2019,04,28,17,14,5.10
2019,04,28,17,15,5.10
2019,04,28,17,16,5.10
2019,04,28,17,17,4.90
2019,04,28,17,18,5.10
2019,04,28,17,19,8.50
2019,04,28,17,20,7.40
2019,04,28,17,21,5.60
2019,04,28,17,22,4.50
2019,04,28,17,23,4.50
2019,04,28,17,24,6.00
2019,04,28,17,25,5.30
2019,04,28,17,26,4.90
2019,04,28,17,27,5.30
2019,04,28,17,28,3.30
2019,04,28,17,29,2.70
2019,04,28,17,30,4.60
2019,04,28,17,31,3.30
2019,04,28,17,32,7.30
2019,04,28,17,33,3.10
2019,04,28,17,34,5.40
2019,04,28,17,35,3.80
2019,04,28,17,36,8.00
2019,04,28,17,37,6.30
2019,04,28,17,38,5.50
2019,04,28,17,39,6.60
2019,04,28,17,40,4.20
2019,04,28,17,41,3.60
2019,04,28,17,42,4.70
2019,04,28,17,43,5.30
2019,04,28,17,44,5.10
2019,04,28,17,45,3.00
2019,04,28,17,46,7.60
2019,04,28,17,47,7.10
2019,04,28,17,48,7.70
2019,04,28,17,49,3.80
2019,04,28,17,50,5.60
2019,04,28,17,51,4.90
2019,04,28,17,52,4.60
2019,04,28,17,53,4.80
2019,04,28,17,54,5.90
2019,04,28,17,55,6.70
2019,04,28,17,56,7.70
2019,04,28,17,57,4.20
2019,04,28,17,58,3.70
2019,04,28,17,59,6.60
2019,04,28,18,00,6.00
2019,04,28,18,01,4.00
2019,04,28,18,02,4.10